EW2847 Weather Reports


Display with metric or nautical units.
time (UTC)temp
F
wind
direction
speed
MPH
gust
MPH
rain 1hr
in
rain 24hr
in
rain mn
in
humidity
%
barometer
mb
20260509054537 37 161 1.0 2.0 0.00 0.01 0.00 72 1004.8
20260509053050 37 161 0.0 2.0 0.00 0.01 0.00 73 1004.7
20260509051533 37 161 2.0 5.0 0.00 0.01 0.00 71 1004.8
20260509050033 36 180 0.0 11.0 0.00 0.01 0.00 74 1004.9
20260509044530 36 355 0.0 0.0 0.00 0.01 0.00 76 1005.0
20260509043039 36 355 2.0 4.0 0.00 0.01 0.00 76 1004.9
20260509041525 37 169 0.0 2.0 0.00 0.01 0.00 71 1004.9
20260509040026 37 169 2.0 3.0 0.00 0.01 0.00 71 1005.0
20260509034522 37 153 1.0 5.0 0.00 0.01 0.01 71 1005.1
20260509033022 37 157 0.0 3.0 0.00 0.01 0.01 71 1005.2
20260509031522 37 161 1.0 5.0 0.00 0.01 0.01 71 1005.3
20260509030022 37 355 0.0 0.0 0.00 0.01 0.01 71 1005.3
20260509024520 37 355 0.0 1.0 0.00 0.01 0.01 71 1005.4
20260509023020 37 355 0.0 2.0 0.00 0.01 0.01 70 1005.5
20260509021520 37 355 0.0 3.0 0.00 0.01 0.01 70 1005.6
20260509020019 37 355 0.0 2.0 0.00 0.01 0.01 71 1005.6
20260509014526 38 355 0.0 3.0 0.00 0.01 0.01 71 1005.6
20260509013118 38 355 0.0 2.0 0.00 0.01 0.01 70 1005.6
20260509011517 38 355 0.0 2.0 0.00 0.01 0.01 69 1005.5
20260509010025 38 355 0.0 3.0 0.00 0.01 0.01 69 1005.4
20260509004522 38 355 0.0 3.0 0.00 0.01 0.01 70 1005.2
20260509003016 39 355 0.0 2.0 0.00 0.01 0.01 72 1005.1
20260509001514 39 355 0.0 1.0 0.00 0.01 0.01 72 1005.0
20260509000013 40 355 0.0 1.0 0.00 0.01 0.01 71 1005.0
20260508234513 40 355 0.0 1.0 0.00 0.01 0.01 70 1005.0
20260508233013 41 355 0.0 5.0 0.00 0.01 0.01 69 1005.0
20260508231511 41 355 3.0 10.0 0.00 0.01 0.01 67 1005.2
20260508230011 41 355 1.0 6.0 0.00 0.01 0.01 68 1005.2
20260508224519 42 355 1.0 5.0 0.00 0.01 0.01 64 1005.2
20260508223011 43 355 1.0 6.0 0.00 0.01 0.01 54 1004.9
20260508221510 44 355 1.0 8.0 0.00 0.01 0.01 52 1004.8
20260508220009 43 355 2.0 10.0 0.00 0.01 0.01 53 1004.9
20260508214522 43 355 1.0 3.0 0.00 0.01 0.01 56 1004.9
20260508213007 43 355 1.0 9.0 0.00 0.01 0.01 57 1004.9
20260508211510 44 355 1.0 11.0 0.00 0.01 0.01 58 1004.8
20260508210010 44 355 2.0 8.0 0.00 0.01 0.01 56 1004.7
20260508204505 43 355 1.0 5.0 0.00 0.01 0.01 58 1004.6
20260508203004 42 355 1.0 4.0 0.00 0.01 0.01 62 1004.6
20260508201605 43 355 1.0 12.0 0.00 0.01 0.01 61 1004.6
20260508200004 45 355 2.0 10.0 0.00 0.01 0.01 50 1004.1
20260508194502 45 355 2.0 9.0 0.00 0.01 0.01 48 1004.2
20260508193120 45 355 3.0 10.0 0.00 0.01 0.01 50 1004.2
20260508191607 44 355 2.0 9.0 0.00 0.01 0.01 54 1004.4
20260508190112 44 355 2.0 9.0 0.00 0.01 0.01 58 1004.4
20260508184556 44 355 2.0 9.0 0.00 0.01 0.01 57 1004.3
20260508183058 44 355 1.0 14.0 0.00 0.01 0.01 59 1004.3
20260508181558 44 355 1.0 11.0 0.00 0.01 0.01 61 1004.3
20260508180051 44 355 1.0 8.0 0.00 0.01 0.01 63 1004.4
20260508174551 42 355 3.0 11.0 0.00 0.01 0.01 70 1004.4
20260508173048 42 355 6.0 11.0 0.00 0.01 0.01 71 1004.6
20260508171547 43 355 1.0 5.0 0.00 0.01 0.01 74 1004.5
20260508170047 40 355 2.0 6.0 0.01 0.01 0.01 82 1004.7
20260508164545 38 355 1.0 3.0 0.01 0.01 0.01 87 1005.0
20260508163058 38 355 4.0 10.0 0.01 0.01 0.01 82 1005.0
20260508161552 40 355 3.0 8.0 0.01 0.01 0.01 79 1005.0
20260508160042 43 350 2.0 10.0 0.00 0.00 0.00 64 1005.0
20260508154542 45 350 2.0 9.0 0.00 0.00 0.00 66 1004.8
20260508153052 42 350 1.0 5.0 0.00 0.00 0.00 74 1005.1
20260508151534 42 350 1.0 4.0 0.00 0.00 0.00 73 1005.3
20260508150030 41 350 2.0 8.0 0.00 0.00 0.00 74 1005.4
20260508144528 41 350 4.0 8.0 0.00 0.00 0.00 75 1005.4
20260508143032 41 350 1.0 5.0 0.00 0.00 0.00 77 1005.5
20260508141526 40 350 0.0 3.0 0.00 0.00 0.00 78 1005.6
20260508140021 39 350 1.0 10.0 0.00 0.00 0.00 78 1005.7
20260508134524 39 350 0.0 5.0 0.00 0.03 0.00 78 1005.7
20260508133019 39 350 1.0 3.0 0.00 0.03 0.00 79 1005.8
20260508131515 38 350 0.0 3.0 0.00 0.03 0.00 80 1005.8
20260508130014 38 350 0.0 2.0 0.00 0.03 0.00 80 1005.8
20260508124512 38 350 0.0 5.0 0.00 0.06 0.00 80 1005.8
20260508123019 37 350 1.0 3.0 0.00 0.06 0.00 82 1005.7
20260508121509 37 225 1.0 3.0 0.00 0.06 0.00 82 1005.7
20260508120008 36 350 1.0 3.0 0.00 0.06 0.00 83 1005.7
20260508114507 36 281 1.0 4.0 0.00 0.06 0.00 85 1005.7
20260508113006 36 196 2.0 5.0 0.00 0.06 0.00 85 1005.7
20260508111511 35 192 0.0 3.0 0.00 0.06 0.00 86 1005.6
20260508110010 35 194 1.0 3.0 0.00 0.06 0.00 86 1005.7
20260508104502 35 194 1.0 3.0 0.00 0.06 0.00 87 1005.7
20260508103009 34 206 1.0 2.0 0.00 0.06 0.00 89 1005.6
20260508101503 34 192 1.0 4.0 0.00 0.06 0.00 90 1005.6
20260508100000 34 184 1.0 3.0 0.00 0.06 0.00 90 1005.5
20260508094600 34 184 1.0 3.0 0.00 0.06 0.00 90 1005.6
20260508093057 34 209 0.0 2.0 0.00 0.06 0.00 89 1005.7
20260508091610 34 209 0.0 2.0 0.00 0.06 0.00 89 1005.7
20260508090055 35 209 0.0 1.0 0.00 0.06 0.00 89 1005.7
20260508084554 35 209 0.0 2.0 0.00 0.06 0.00 89 1005.7
20260508083052 35 210 0.0 2.0 0.00 0.06 0.00 89 1005.7
20260508081608 35 209 0.0 2.0 0.00 0.06 0.00 89 1005.7
20260508080049 35 216 0.0 2.0 0.00 0.06 0.00 90 1005.6
20260508074549 36 213 0.0 2.0 0.00 0.06 0.00 90 1005.7
20260508073049 36 213 0.0 2.0 0.00 0.06 0.00 90 1005.7
20260508071545 36 215 1.0 2.0 0.00 0.06 0.00 90 1005.8
20260508070044 36 210 0.0 2.0 0.00 0.06 0.00 90 1005.8
20260508064542 36 210 0.0 2.0 0.00 0.06 0.00 90 1005.8
20260508063041 36 210 0.0 2.0 0.00 0.06 0.00 90 1006.0
20260508061541 36 210 0.0 1.0 0.00 0.06 0.00 89 1006.1
20260508060053 36 210 1.0 2.0 0.00 0.06 0.00 89 1006.3